Tracking 20066 objects as of 7-Dec-2019
HD Live streaming from Space Station
objects crossing your sky now

COSMOS 2251 DEB

Track COSMOS 2251 DEB now!
10-day predictions


NORAD ID: 37544
Int'l Code: 1993-036BNZ
Perigee: 622.0 km
Apogee: 660.0 km
Inclination: 74.0 °
Period: 97.4 minutes
Semi major axis: 7011 km
RCS: 0.0115 m2 (small)
Launch date: June 16, 1993
Source: Commonwealth of Independent States (former USSR) (CIS)
Launch site: PLESETSK MISSILE AND SPACE COMPLEX (PKMTR)

Note: This is SATELLITE DEBRIS
aabbcc
Your satellite tracking list
Your tracking list is empty




NASA's NSSDC Master Catalog

Two Line Element Set (TLE):
1 37544U 93036BNZ 19339.78694636 +.00002077 +00000-0 +28706-3 0  9990
2 37544 073.9772 015.4931 0027095 104.0710 256.3479 14.78568487309353
Source of the keplerian elements: AFSPC